VE3UIX Weather Reports


Display with metric or nautical units.
time (UTC)temp
F
wind
direction
speed
MPH
gust
MPH
rain 1hr
in
rain 24hr
in
rain mn
in
humidity
%
barometer
mb
20210613044937 58 310 0.0 0.0 0.00 0.00 0.00 76 1008.1
20210613043435 59 310 0.0 0.0 0.00 0.00 0.00 74 1008.0
20210613041930 60 310 0.0 2.0 0.00 0.00 0.00 72 1008.1
20210613040419 60 310 0.0 2.0 0.00 0.00 0.00 70 1008.0
20210613034915 61 310 2.0 4.0 0.00 0.00 0.00 67 1007.9
20210613033413 62 310 1.0 4.0 0.00 0.00 0.00 67 1008.0
20210613031904 63 311 3.0 5.0 0.00 0.00 0.00 65 1008.1
20210613030354 63 315 1.0 3.0 0.00 0.00 0.00 64 1008.0
20210613024852 64 315 1.0 3.0 0.00 0.00 0.00 61 1007.8
20210613023350 64 315 1.0 3.0 0.00 0.00 0.00 59 1007.8
20210613021850 65 315 2.0 3.0 0.00 0.00 0.00 60 1007.8
20210613020346 65 315 2.0 3.0 0.00 0.00 0.00 58 1007.8
20210613014845 66 315 2.0 3.0 0.00 0.00 0.00 54 1007.9
20210613013341 67 315 2.0 3.0 0.00 0.00 0.00 51 1007.8
20210613011842 68 315 1.0 3.0 0.00 0.00 0.00 49 1007.7
20210613010342 69 315 0.0 0.0 0.00 0.00 0.00 48 1007.6
20210613004830 71 315 0.0 0.0 0.00 0.00 0.00 45 1007.6
20210613003334 72 315 0.0 3.0 0.00 0.00 0.00 45 1007.6
20210613001816 73 315 1.0 5.0 0.00 0.00 0.00 42 1007.6
20210613000317 74 329 2.0 4.0 0.00 0.00 0.00 40 1007.7
20210612234822 74 291 2.0 5.0 0.00 0.00 0.00 40 1007.9
20210612233315 74 290 3.0 8.0 0.00 0.00 0.00 39 1008.0
20210612231812 75 297 3.0 8.0 0.00 0.00 0.00 39 1008.0
20210612230313 75 304 1.0 5.0 0.00 0.00 0.00 38 1007.9
20210612224806 76 304 1.0 6.0 0.00 0.00 0.00 36 1008.0
20210612223308 76 296 2.0 7.0 0.00 0.00 0.00 36 1007.8
20210612221805 76 292 2.0 6.0 0.00 0.00 0.00 35 1007.8
20210612220306 77 296 3.0 7.0 0.00 0.00 0.00 35 1007.8
20210612214757 77 293 3.0 9.0 0.00 0.00 0.00 32 1007.8
20210612213258 78 284 2.0 7.0 0.00 0.00 0.00 32 1008.0
20210612211755 78 279 3.0 9.0 0.00 0.00 0.00 31 1008.1
20210612210256 78 340 2.0 7.0 0.00 0.00 0.00 31 1008.1
20210612204747 78 336 4.0 9.0 0.00 0.00 0.00 30 1008.1
20210612203243 80 287 3.0 10.0 0.00 0.00 0.00 29 1008.1
20210612201741 80 344 3.0 8.0 0.00 0.00 0.00 30 1008.2
20210612200237 80 313 3.0 7.0 0.00 0.00 0.00 28 1008.4
20210612194729 80 268 3.0 10.0 0.00 0.00 0.00 25 1008.5
20210612193223 81 259 6.0 11.0 0.00 0.00 0.00 29 1008.6
20210612191724 80 253 5.0 13.0 0.00 0.00 0.00 26 1008.6
20210612190223 79 281 4.0 11.0 0.00 0.00 0.00 28 1008.6
20210612184724 80 284 3.0 12.0 0.00 0.00 0.00 32 1008.6
20210612183223 80 279 7.0 18.0 0.00 0.00 0.00 28 1008.6
20210612181724 79 245 7.0 13.0 0.00 0.00 0.00 31 1008.7
20210612180221 80 336 3.0 8.0 0.00 0.00 0.00 29 1008.8
20210612174715 79 350 2.0 8.0 0.00 0.00 0.00 34 1008.9
20210612173215 79 269 3.0 9.0 0.00 0.00 0.00 34 1009.0
20210612171711 79 351 3.0 11.0 0.00 0.00 0.00 31 1009.0
20210612170208 78 252 6.0 11.0 0.00 0.00 0.00 32 1009.1
20210612164706 78 302 4.0 11.0 0.00 0.00 0.00 31 1009.5
20210612163205 77 329 2.0 10.0 0.00 0.00 0.00 33 1009.3
20210612161659 77 248 6.0 12.0 0.00 0.00 0.00 36 1009.3
20210612160156 78 244 2.0 8.0 0.00 0.00 0.00 32 1009.6
20210612154655 78 55 4.0 10.0 0.00 0.00 0.00 37 1009.7
20210612153151 76 327 2.0 6.0 0.00 0.00 0.00 37 1010.0
20210612151652 78 23 4.0 12.0 0.00 0.00 0.00 34 1010.0
20210612150146 77 36 5.0 9.0 0.00 0.00 0.00 32 1010.1
20210612144646 77 44 4.0 12.0 0.00 0.00 0.00 36 1010.1
20210612143146 75 18 4.0 9.0 0.00 0.00 0.00 39 1010.4
20210612141646 75 19 4.0 9.0 0.00 0.00 0.00 47 1010.5
20210612140142 72 349 6.0 10.0 0.00 0.00 0.00 49 1010.4
20210612134640 72 0 5.0 9.0 0.00 0.00 0.00 55 1010.3
20210612133140 71 0 4.0 10.0 0.00 0.00 0.00 57 1010.4
20210612131634 68 324 3.0 9.0 0.00 0.00 0.00 67 1010.6
20210612130133 66 272 3.0 7.0 0.00 0.00 0.00 75 1010.5
20210612124623 65 288 3.0 6.0 0.00 0.00 0.00 80 1010.3
20210612123124 63 286 2.0 7.0 0.00 0.00 0.00 81 1010.0
20210612121622 62 285 3.0 7.0 0.00 0.00 0.00 85 1010.0
20210612120124 60 287 2.0 7.0 0.00 0.00 0.00 89 1009.9
20210612114620 60 287 4.0 7.0 0.00 0.00 0.00 91 1009.8
20210612113120 59 280 4.0 8.0 0.00 0.00 0.00 92 1009.6
20210612111619 58 275 3.0 8.0 0.00 0.00 0.00 94 1009.6
20210612110119 57 273 4.0 8.0 0.00 0.00 0.00 95 1009.3
20210612104613 56 274 3.0 7.0 0.00 0.00 0.00 96 1009.2
20210612103113 55 270 3.0 7.0 0.00 0.00 0.00 96 1009.2
20210612101601 54 263 5.0 9.0 0.00 0.00 0.00 96 1009.0
20210612100101 54 256 4.0 7.0 0.00 0.00 0.00 96 1009.0
20210612094601 53 255 3.0 6.0 0.00 0.00 0.00 95 1008.9
20210612093053 53 254 4.0 7.0 0.00 0.00 0.00 95 1008.8
20210612091548 53 252 3.0 6.0 0.00 0.00 0.00 95 1008.5
20210612090038 53 252 1.0 6.0 0.00 0.00 0.00 94 1008.5
20210612084525 53 252 3.0 7.0 0.00 0.00 0.00 94 1008.5
20210612083023 53 252 3.0 6.0 0.00 0.00 0.00 94 1008.5
20210612081511 53 251 2.0 7.0 0.00 0.01 0.00 94 1008.4
20210612080007 54 251 4.0 7.0 0.00 0.01 0.00 94 1008.6
20210612074505 54 249 4.0 7.0 0.00 0.01 0.00 94 1008.4
20210612073003 53 249 3.0 5.0 0.00 0.01 0.00 93 1008.3
20210612071503 54 249 1.0 5.0 0.00 0.01 0.00 92 1008.1
20210612065959 54 249 2.0 4.0 0.00 0.01 0.00 92 1008.1
20210612064459 55 249 2.0 4.0 0.00 0.02 0.00 92 1008.1
20210612062952 55 249 4.0 7.0 0.00 0.02 0.00 92 1008.2
20210612061451 55 250 4.0 7.0 0.00 0.02 0.00 92 1008.5
20210612055951 55 250 5.0 8.0 0.00 0.03 0.00 92 1008.8
20210612054449 55 250 4.0 7.0 0.00 0.04 0.00 92 1008.9
20210612052937 56 250 3.0 6.0 0.00 0.04 0.00 91 1009.3
20210612051427 56 250 3.0 6.0 0.00 0.05 0.00 90 1009.7
20210612045917 57 250 3.0 6.0 0.00 0.05 0.00 90 1009.9